Showing default

FLOCK 4G 21, 62651

Orbit data source: Space-Track

FLOCK 4G 21, 62651 is a payload satellite owned by Planet (US) in SSO that was launched on Tue, 14 Jan 2025 UTC via an FALCON 9 launch vehicle from the Air Force Western Test Range (AFWTR). Payload-class satellites include a variety of spacecraft equipped with specific instruments for various scientific and technological missions. These include communications satellites like Starlink; space stations such as the ISS; scientific satellites like the Hubble; Earth observation satellites from companies like Planet Labs, Umbra, and HawkEye 360; GPS; miniature CubeSats for education and research; and military/defense satellites.

Loading next visibility...
Identifier
62651, 2025-009AU
Orbit
SSO
Country
Flag of USUS
Related business
Manufacturer
Planet
Mission
Partially operational Commercial Imaging
Bus & Motor
CUBESAT 3U, Unknown motor
Mass
5.7 kg wet, 5.7 kg dry
Launch date (UTC)
2025-01-14 (2 years ago)
Launch vehicle
FALCON 9
Launch site
Air Force Western Test Range (AFWTR)
Object type
Payload
Rocket body
Debris
Shape & HBR
Box + 2 Pan, 1.0 m
Radar Cross Section
0.072 m², Medium (>0.1 m² and < 1m²)

Expand to show TLE details & history
Last TLE update: 10 hours ago

TLE from 10 hours ago
0 FLOCK 4G 21
1 62651U 25009AU  26264.48908236  .00030707  00000-0  83649-3 0  9996
2 62651  97.3938 347.1580 0001040 356.2534   3.8703 15.37435246 93724
Epoch: 2026-09-21T11:44Z
TLE epoch observation values (Epoch: 2026-09-21T11:44:16.715Z)
Latitude
-0.00001°
Longitude
170.72018°
Altitude
456.102 km
Speed
7.639 km/s
True Right ascension
23h 08m 37s
True Declination
0° 00' 00"
Sunlit
Object was in full shadow at epoch
Visualization orbit readout
Latitude
Unknown
Longitude
Unknown
Altitude
Unknown
Speed
Unknown
Apparent Right ascension
Unknown
Apparent Declination
Unknown
Sunlit
N/A
Visualization observer readout
Local Sidereal Time
14:53:56
Azimuth
Unknown
Elevation
Unknown
Doppler factor
Unknown
Orbital elements
Apogee altitude
451.349 km
Perigee altitude
449.929 km
Semi-major axis
6,828.776 km
Eccentricity
0.0001
Inclination
97.3938°
RAAN
347.158°
Arg. of periapsis
356.2534°
True anomaly
3.8711°
Mean anomaly
3.8703°
Eccentric anomaly
3.8707°
Mean motion
3.84617 °/min
Orbital period
93.6 mins
BSTAR
0.00083649
Loading maneuver chart data...
Computing Atmospheric mass density...
Loading historical data...
Loading historical data...
Loading historical data...
Loading historical data...
Loading historical data...
Loading historical data...
Loading historical data...

Documentation

Showing up to 5 results
|